This is the latest recevied weather packets stored in our database for station/object W0RMT-13. If no packets are shown the sender has not sent any weather packets the latest 10 day(s).
| Time | Temp. | Humidity | Pressure | Rain* | Wind** | Luminosity | Snow |
|---|---|---|---|---|---|---|---|
| 1778172964 | 13.89° C | 48% | 1015.4 hPa | 0 mm | - | 157 W/m² | - |
| 1778172316 | 13.89° C | 46% | 1015 hPa | 0 mm | - | 132 W/m² | - |
| 1778171668 | 13.89° C | 46% | 1015 hPa | 0 mm | - | 120 W/m² | - |
| 1778171012 | 14.44° C | 41% | 1015 hPa | 0 mm | - | 125 W/m² | - |
| 1778170354 | 15° C | 47% | 1015.4 hPa | 0 mm | - | 160 W/m² | - |
| 1778169714 | 15.56° C | 46% | 1015.4 hPa | 0 mm | - | 192 W/m² | - |
| 1778169076 | 15.56° C | 40% | 1015.4 hPa | 0 mm | - | 218 W/m² | - |
| 1778168323 | 15.56° C | 43% | 1015.4 hPa | 0 mm | - | 367 W/m² | - |
| 1778167676 | 15.56° C | 40% | 1015.4 hPa | 0 mm | - | 299 W/m² | - |
| 1778166959 | 14.44° C | 40% | 1015.4 hPa | 0 mm | - | 430 W/m² | - |
| 1778166268 | 14.44° C | 40% | 1015.4 hPa | 0 mm | - | 312 W/m² | - |
| 1778165646 | 14.44° C | 41% | 1015.4 hPa | 0 mm | - | 288 W/m² | - |
| 1778164991 | 13.89° C | 40% | 1015.4 hPa | 0 mm | - | 244 W/m² | - |
| 1778164313 | 13.33° C | 40% | 1015.4 hPa | 0 mm | - | 394 W/m² | - |
| 1778163676 | 12.78° C | 46% | 1015 hPa | 0 mm | - | 278 W/m² | - |
| 1778163059 | 11.67° C | 45% | 1015.4 hPa | 0 mm | - | 278 W/m² | - |
| 1778162450 | 11.11° C | 44% | 1015.4 hPa | 0 mm | - | 293 W/m² | - |
| 1778161759 | 10° C | 47% | 1015 hPa | 0 mm | - | 261 W/m² | - |
| 1778161112 | 9.44° C | 49% | 1015 hPa | 0 mm | - | 234 W/m² | - |
| 1778160489 | 8.33° C | 49% | 1015.4 hPa | 0 mm | - | 132 W/m² | - |
| 1778159819 | 7.78° C | 53% | 1015 hPa | 0 mm | - | 127 W/m² | - |
| 1778159157 | 7.22° C | 54% | 1015 hPa | 0 mm | - | 107 W/m² | - |
| 1778158474 | 6.67° C | 55% | 1015 hPa | 0 mm | - | 80 W/m² | - |
| 1778157844 | 5.56° C | 59% | 1014.7 hPa | 0 mm | - | 40 W/m² | - |
| 1778157217 | 5.56° C | 61% | 1014.7 hPa | 0 mm | - | 41 W/m² | - |
* Rain latest hour (hover to see other rain measurements)
** Current wind speed in m/s (hover to see current wind gust speed)